When you browse on this site, cookies collect data to enhance your experience and personalize the content and advertising you see.
Visit our Privacy Policy to learn more. By continuing to use the site, you agree to this use of cookies and data.
  • In Portugal
  • List of Countries
  • For 7 days
  • Water Temperature
  • Satellite Maps
  • Weather Map
  • Weather Widgets
  • user-avatar
    Login

    Hourly Weather Oruro

    Today, 17 November, Saturday

    Time Temperature Precipitation Wind Pressure Humidity
    00:00 +11°C° 0.1 mm 3 mps 476 mmHg 61%
    01:00 +11°C° 0.1 mm 3 mps 476 mmHg 62%
    02:00 +10°C° 0 mm 3 mps 476 mmHg 65%
    03:00 +10°C° 0 mm 3 mps 476 mmHg 66%
    04:00 +10°C° 0 mm 3 mps 476 mmHg 66%
    05:00 +9°C° 0 mm 3 mps 476 mmHg 67%
    06:00 +10°C° 0 mm 3 mps 476 mmHg 64%
    07:00 +12°C° 0 mm 2 mps 477 mmHg 60%
    08:00 +12°C° 0 mm 2 mps 478 mmHg 55%
    09:00 +14°C° 0 mm 2 mps 478 mmHg 49%
    10:00 +15°C° 0 mm 2 mps 478 mmHg 43%
    11:00 +16°C° 0 mm 2 mps 479 mmHg 37%
    12:00 +17°C° 0.3 mm 2 mps 479 mmHg 35%
    13:00 +18°C° 0.3 mm 2 mps 479 mmHg 33%
    14:00 +19°C° 0.3 mm 1 mps 479 mmHg 31%
    15:00 +18°C° 0.3 mm 2 mps 478 mmHg 32%
    16:00 +18°C° 0.3 mm 3 mps 478 mmHg 33%
    17:00 +18°C° 0.3 mm 3 mps 478 mmHg 34%
    18:00 +17°C° 0.1 mm 4 mps 477 mmHg 39%
    19:00 +15°C° 0.1 mm 4 mps 477 mmHg 44%
    20:00 +14°C° 0.1 mm 4 mps 477 mmHg 49%
    21:00 +13°C° 0.1 mm 4 mps 477 mmHg 52%
    22:00 +12°C° 0.1 mm 4 mps 477 mmHg 54%
    23:00 +12°C° 0.1 mm 4 mps 477 mmHg 57%

    Tomorrow, 18 November, Sunday

    Time Temperature Precipitation Wind Pressure Humidity
    00:00 +11°C° 0 mm 4 mps 477 mmHg 58%
    01:00 +11°C° 0 mm 3 mps 476 mmHg 58%
    02:00 +12°C° 0 mm 2 mps 476 mmHg 58%
    03:00 +12°C° 0 mm 2 mps 476 mmHg 59%
    04:00 +10°C° 0 mm 2 mps 476 mmHg 61%
    05:00 +11°C° 0 mm 1 mps 476 mmHg 62%
    06:00 +12°C° 0 mm 1 mps 476 mmHg 58%
    07:00 +12°C° 0 mm 1 mps 477 mmHg 54%
    08:00 +13°C° 0 mm 1 mps 477 mmHg 50%
    09:00 +14°C° 0 mm 1 mps 478 mmHg 45%
    10:00 +16°C° 0 mm 2 mps 479 mmHg 39%
    11:00 +17°C° 0 mm 2 mps 479 mmHg 34%
    12:00 +17°C° 0 mm 3 mps 479 mmHg 34%
    13:00 +17°C° 0 mm 4 mps 479 mmHg 34%
    14:00 +17°C° 0 mm 5 mps 478 mmHg 34%
    15:00 +16°C° 0.1 mm 6 mps 478 mmHg 38%
    16:00 +16°C° 0.1 mm 7 mps 477 mmHg 42%
    17:00 +15°C° 0.1 mm 8 mps 477 mmHg 46%
    18:00 +14°C° 0.1 mm 7 mps 477 mmHg 51%
    19:00 +11°C° 0.1 mm 7 mps 476 mmHg 57%
    20:00 +10°C° 0.1 mm 7 mps 476 mmHg 62%
    21:00 +10°C° 0.2 mm 6 mps 476 mmHg 64%
    22:00 +9°C° 0.2 mm 5 mps 477 mmHg 66%
    23:00 +9°C° 0.2 mm 5 mps 477 mmHg 68%

    Day after tomorrow, 19 November, Monday

    Time Temperature Precipitation Wind Pressure Humidity
    00:00 +10°C° 0.1 mm 4 mps 476 mmHg 69%
    01:00 +10°C° 0.1 mm 4 mps 476 mmHg 69%
    02:00 +8°C° 0.1 mm 4 mps 476 mmHg 70%
    03:00 +9°C° 0.2 mm 3 mps 476 mmHg 71%
    04:00 +9°C° 0.2 mm 3 mps 476 mmHg 71%
    05:00 +9°C° 0.2 mm 3 mps 476 mmHg 72%
    06:00 +9°C° 0.1 mm 3 mps 476 mmHg 70%
    07:00 +10°C° 0.1 mm 3 mps 477 mmHg 68%
    08:00 +10°C° 0.1 mm 3 mps 477 mmHg 67%
    09:00 +11°C° 0.2 mm 3 mps 478 mmHg 62%
    10:00 +12°C° 0.2 mm 3 mps 478 mmHg 57%
    11:00 +13°C° 0.2 mm 3 mps 479 mmHg 52%
    12:00 +13°C° 0.2 mm 3 mps 479 mmHg 51%
    13:00 +14°C° 0.2 mm 4 mps 478 mmHg 51%
    14:00 +14°C° 0.2 mm 4 mps 478 mmHg 50%
    15:00 +13°C° 0.3 mm 4 mps 477 mmHg 52%
    16:00 +13°C° 0.3 mm 5 mps 476 mmHg 54%
    17:00 +12°C° 0.3 mm 5 mps 476 mmHg 56%
    18:00 +12°C° 0 mm 5 mps 476 mmHg 58%
    19:00 +10°C° 0 mm 5 mps 476 mmHg 60%
    20:00 +10°C° 0 mm 5 mps 476 mmHg 61%
    21:00 +10°C° 0.1 mm 4 mps 476 mmHg 62%
    22:00 +10°C° 0.1 mm 4 mps 476 mmHg 63%
    23:00 +10°C° 0.1 mm 3 mps 477 mmHg 64%

    20 November, Tuesday

    Time Temperature Precipitation Wind Pressure Humidity
    00:00 +9°C° 0.2 mm 3 mps 476 mmHg 64%
    01:00 +9°C° 0.2 mm 2 mps 476 mmHg 64%
    02:00 +9°C° 0.2 mm 2 mps 475 mmHg 64%
    03:00 +9°C° 0.1 mm 2 mps 475 mmHg 64%
    04:00 +9°C° 0.1 mm 2 mps 475 mmHg 65%
    05:00 +9°C° 0.1 mm 2 mps 475 mmHg 65%
    06:00 +9°C° 0 mm 2 mps 476 mmHg 63%
    07:00 +10°C° 0 mm 2 mps 476 mmHg 61%
    08:00 +10°C° 0 mm 2 mps 477 mmHg 59%
    09:00 +13°C° 0 mm 2 mps 478 mmHg 53%
    10:00 +14°C° 0 mm 2 mps 479 mmHg 46%
    11:00 +16°C° 0 mm 2 mps 479 mmHg 40%
    12:00 +16°C° 0 mm 2 mps 479 mmHg 38%
    13:00 +17°C° 0 mm 3 mps 479 mmHg 36%
    14:00 +18°C° 0 mm 3 mps 479 mmHg 34%
    15:00 +18°C° 0 mm 4 mps 478 mmHg 35%
    16:00 +17°C° 0 mm 5 mps 478 mmHg 36%
    17:00 +16°C° 0 mm 5 mps 477 mmHg 36%
    18:00 +15°C° 0 mm 6 mps 477 mmHg 43%
    19:00 +14°C° 0 mm 7 mps 477 mmHg 49%
    20:00 +11°C° 0 mm 7 mps 476 mmHg 55%
    21:00 +11°C° 0 mm 7 mps 477 mmHg 58%
    22:00 +10°C° 0 mm 6 mps 477 mmHg 60%
    23:00 +10°C° 0 mm 6 mps 477 mmHg 63%

    21 November, Wednesday

    Time Temperature Precipitation Wind Pressure Humidity
    00:00 +9°C° 0.1 mm 5 mps 477 mmHg 65%
    01:00 +10°C° 0.1 mm 4 mps 476 mmHg 66%
    02:00 +8°C° 0.1 mm 4 mps 476 mmHg 67%
    03:00 +9°C° 0 mm 3 mps 476 mmHg 68%
    04:00 +9°C° 0 mm 3 mps 475 mmHg 69%
    05:00 +9°C° 0 mm 3 mps 475 mmHg 70%
    06:00 +9°C° 0 mm 3 mps 476 mmHg 67%
    07:00 +10°C° 0 mm 3 mps 477 mmHg 64%
    08:00 +10°C° 0 mm 3 mps 478 mmHg 61%
    09:00 +12°C° 0.1 mm 3 mps 478 mmHg 55%
    10:00 +13°C° 0.1 mm 3 mps 479 mmHg 49%
    11:00 +16°C° 0.1 mm 3 mps 479 mmHg 44%
    12:00 +16°C° 0 mm 3 mps 479 mmHg 41%
    13:00 +17°C° 0 mm 3 mps 479 mmHg 37%
    14:00 +18°C° 0 mm 3 mps 479 mmHg 34%
    15:00 +18°C° 0 mm 4 mps 478 mmHg 35%
    16:00 +18°C° 0 mm 4 mps 478 mmHg 36%
    17:00 +18°C° 0 mm 4 mps 477 mmHg 37%
    18:00 +15°C° 0 mm 5 mps 477 mmHg 42%
    19:00 +14°C° 0 mm 6 mps 477 mmHg 47%
    20:00 +12°C° 0 mm 7 mps 476 mmHg 53%
    21:00 +11°C° 0 mm 6 mps 476 mmHg 55%
    22:00 +10°C° 0 mm 5 mps 477 mmHg 58%
    23:00 +10°C° 0 mm 5 mps 477 mmHg 60%

    22 November, Thursday

    Time Temperature Precipitation Wind Pressure Humidity
    00:00 +11°C° 0.1 mm 4 mps 476 mmHg 62%
    01:00 +10°C° 0.1 mm 4 mps 476 mmHg 64%
    02:00 +10°C° 0.1 mm 3 mps 476 mmHg 65%
    03:00 +10°C° 0.1 mm 3 mps 475 mmHg 65%
    04:00 +10°C° 0.1 mm 2 mps 475 mmHg 66%
    05:00 +10°C° 0.1 mm 2 mps 475 mmHg 66%
    06:00 +11°C° 0.1 mm 1 mps 476 mmHg 64%
    07:00 +11°C° 0.1 mm 1 mps 476 mmHg 61%
    08:00 +12°C° 0.1 mm 1 mps 477 mmHg 59%
    09:00 +13°C° 0 mm 1 mps 477 mmHg 52%
    10:00 +15°C° 0 mm 1 mps 478 mmHg 46%
    11:00 +16°C° 0 mm 1 mps 479 mmHg 39%
    12:00 +18°C° 0 mm 1 mps 478 mmHg 36%
    13:00 +18°C° 0 mm 2 mps 478 mmHg 34%
    14:00 +19°C° 0 mm 2 mps 478 mmHg 31%
    15:00 +19°C° 0 mm 3 mps 478 mmHg 33%
    16:00 +18°C° 0 mm 4 mps 477 mmHg 35%
    17:00 +17°C° 0 mm 5 mps 477 mmHg 36%
    18:00 +16°C° 0.1 mm 6 mps 476 mmHg 42%
    19:00 +15°C° 0.1 mm 6 mps 476 mmHg 48%
    20:00 +12°C° 0.1 mm 7 mps 476 mmHg 53%
    21:00 +13°C° 0.1 mm 6 mps 476 mmHg 57%
    22:00 +11°C° 0.1 mm 6 mps 476 mmHg 60%
    23:00 +10°C° 0.1 mm 5 mps 476 mmHg 63%
    Show more